Time,TemperatureF,DewpointF,PressureIn,WindDirection,WindDirectionDegrees,WindSpeedMPH,WindSpeedGustMPH,Humidity,HourlyPrecipIn,Conditions,Clouds,dailyrainin,SoftwareType,DateUTC
2013-09-13 00:14:00,78.1,76.0,29.89,NNE,24,0.0,-999.0,92,-99.99,,,0.00,weatherlink.com 1.10,2013-09-13 04:14:00,
2013-09-13 00:29:00,78.1,76.0,29.88,NW,316,0.0,-999.0,92,-99.99,,,0.00,weatherlink.com 1.10,2013-09-13 04:29:00,
2013-09-13 00:44:00,78.1,76.0,29.88,NW,316,0.0,-999.0,92,-99.99,,,0.00,weatherlink.com 1.10,2013-09-13 04:44:00,
2013-09-13 00:59:00,78.1,76.0,29.88,NW,313,0.0,-999.0,92,-99.99,,,0.00,weatherlink.com 1.10,2013-09-13 04:59:00,
2013-09-13 01:14:00,78.0,76.0,29.88,NNW,331,2.0,-999.0,93,-99.99,,,0.14,weatherlink.com 1.10,2013-09-13 05:14:00,
2013-09-13 01:29:00,77.3,76.0,29.88,NE,46,3.0,-999.0,94,-99.99,,,0.35,weatherlink.com 1.10,2013-09-13 05:29:00,
2013-09-13 01:44:00,76.9,75.0,29.87,NNE,27,0.0,-999.0,95,-99.99,,,0.35,weatherlink.com 1.10,2013-09-13 05:44:00,
2013-09-13 02:00:00,76.5,75.0,29.86,ESE,123,0.0,-999.0,95,-99.99,,,0.35,weatherlink.com 1.10,2013-09-13 06:00:00,
2013-09-13 02:15:00,76.5,75.0,29.86,SE,126,0.0,-999.0,95,-99.99,,,0.35,weatherlink.com 1.10,2013-09-13 06:15:00,
2013-09-13 02:30:00,76.0,75.0,29.86,NW,309,0.0,-999.0,95,-99.99,,,0.35,weatherlink.com 1.10,2013-09-13 06:30:00,
2013-09-13 02:45:00,75.9,74.0,29.86,NW,319,0.0,-999.0,95,-99.99,,,0.35,weatherlink.com 1.10,2013-09-13 06:45:00,
2013-09-13 03:00:00,75.7,75.0,29.86,North,350,0.0,-999.0,96,-99.99,,,0.35,weatherlink.com 1.10,2013-09-13 07:00:00,
2013-09-13 03:15:00,75.5,74.0,29.86,ENE,62,0.0,-999.0,96,-99.99,,,0.35,weatherlink.com 1.10,2013-09-13 07:15:00,
2013-09-13 03:30:00,75.5,74.0,29.87,NE,55,0.0,-999.0,96,-99.99,,,0.35,weatherlink.com 1.10,2013-09-13 07:30:00,
2013-09-13 03:45:00,75.5,74.0,29.86,ENE,57,0.0,-999.0,96,-99.99,,,0.35,weatherlink.com 1.10,2013-09-13 07:45:00,
2013-09-13 04:00:00,75.3,74.0,29.86,ENE,62,0.0,-999.0,96,-99.99,,,0.35,weatherlink.com 1.10,2013-09-13 08:00:00,
2013-09-13 04:15:00,75.3,74.0,29.86,ENE,60,0.0,-999.0,96,-99.99,,,0.35,weatherlink.com 1.10,2013-09-13 08:15:00,
2013-09-13 04:30:00,75.1,74.0,29.85,ENE,60,0.0,-999.0,96,-99.99,,,0.35,weatherlink.com 1.10,2013-09-13 08:30:00,
2013-09-13 04:45:00,75.0,74.0,29.85,ENE,60,0.0,-999.0,96,-99.99,,,0.35,weatherlink.com 1.10,2013-09-13 08:45:00,
2013-09-13 05:00:00,75.0,74.0,29.85,ENE,61,0.0,-999.0,96,-99.99,,,0.35,weatherlink.com 1.10,2013-09-13 09:00:00,
2013-09-13 05:15:00,74.8,74.0,29.84,ENE,61,0.0,-999.0,96,-99.99,,,0.35,weatherlink.com 1.10,2013-09-13 09:15:00,
2013-09-13 05:30:00,74.6,74.0,29.84,ENE,60,0.0,-999.0,97,-99.99,,,0.35,weatherlink.com 1.10,2013-09-13 09:30:00,
2013-09-13 05:45:00,74.6,74.0,29.84,ENE,61,0.0,-999.0,97,-99.99,,,0.35,weatherlink.com 1.10,2013-09-13 09:45:00,
2013-09-13 06:00:00,74.5,74.0,29.84,ENE,60,0.0,-999.0,97,-99.99,,,0.35,weatherlink.com 1.10,2013-09-13 10:00:00,
2013-09-13 06:15:00,74.7,74.0,29.84,ENE,60,0.0,-999.0,97,-99.99,,,0.35,weatherlink.com 1.10,2013-09-13 10:15:00,
2013-09-13 06:30:00,74.8,74.0,29.85,ENE,61,0.0,-999.0,97,-99.99,,,0.35,weatherlink.com 1.10,2013-09-13 10:30:00,
2013-09-13 06:45:00,74.9,74.0,29.86,ENE,60,0.0,-999.0,97,-99.99,,,0.35,weatherlink.com 1.10,2013-09-13 10:45:00,
2013-09-13 07:00:00,74.7,74.0,29.87,ENE,60,0.0,-999.0,97,-99.99,,,0.35,weatherlink.com 1.10,2013-09-13 11:00:00,
2013-09-13 07:15:00,74.4,74.0,29.87,ENE,60,0.0,-999.0,97,-99.99,,,0.35,weatherlink.com 1.10,2013-09-13 11:15:00,
2013-09-13 07:30:00,74.7,74.0,29.87,ENE,60,0.0,-999.0,97,-99.99,,,0.35,weatherlink.com 1.10,2013-09-13 11:30:00,
2013-09-13 07:45:00,75.4,75.0,29.87,ENE,60,0.0,-999.0,97,-99.99,,,0.35,weatherlink.com 1.10,2013-09-13 11:45:00,
2013-09-13 08:00:00,76.2,75.0,29.88,ENE,60,0.0,-999.0,97,-99.99,,,0.35,weatherlink.com 1.10,2013-09-13 12:00:00,
2013-09-13 08:15:00,78.0,77.0,29.88,ENE,60,0.0,-999.0,97,-99.99,,,0.35,weatherlink.com 1.10,2013-09-13 12:15:00,
2013-09-13 08:30:00,79.0,78.0,29.88,ENE,60,0.0,-999.0,97,-99.99,,,0.35,weatherlink.com 1.10,2013-09-13 12:30:00,
2013-09-13 08:45:00,80.6,79.0,29.88,ENE,61,0.0,-999.0,96,-99.99,,,0.35,weatherlink.com 1.10,2013-09-13 12:45:00,
2013-09-13 09:00:00,81.9,80.0,29.88,WNW,284,0.0,-999.0,93,-99.99,,,0.35,weatherlink.com 1.10,2013-09-13 13:00:00,
2013-09-13 09:15:00,83.2,79.0,29.88,SSW,207,0.0,-999.0,88,-99.99,,,0.35,weatherlink.com 1.10,2013-09-13 13:15:00,
2013-09-13 09:30:00,83.8,79.0,29.88,WNW,284,0.0,-999.0,84,-99.99,,,0.35,weatherlink.com 1.10,2013-09-13 13:30:00,
2013-09-13 09:45:00,84.7,79.0,29.88,SW,235,0.0,-999.0,82,-99.99,,,0.35,weatherlink.com 1.10,2013-09-13 13:45:00,
2013-09-13 10:00:00,84.7,78.0,29.88,West,274,0.0,-999.0,79,-99.99,,,0.35,weatherlink.com 1.10,2013-09-13 14:00:00,
2013-09-13 10:15:00,87.1,79.0,29.88,SE,140,0.0,-999.0,77,-99.99,,,0.35,weatherlink.com 1.10,2013-09-13 14:15:00,
2013-09-13 10:30:00,86.5,77.0,29.88,WSW,257,0.0,-999.0,74,-99.99,,,0.35,weatherlink.com 1.10,2013-09-13 14:30:00,
2013-09-13 10:45:00,86.3,77.0,29.89,SW,221,0.0,-999.0,73,-99.99,,,0.35,weatherlink.com 1.10,2013-09-13 14:45:00,
2013-09-13 11:00:00,88.2,78.0,29.89,NNW,342,3.0,-999.0,71,-99.99,,,0.35,weatherlink.com 1.10,2013-09-13 15:00:00,
2013-09-13 11:15:00,87.9,77.0,29.89,WNW,291,1.0,-999.0,69,-99.99,,,0.35,weatherlink.com 1.10,2013-09-13 15:15:00,
2013-09-13 11:30:00,88.7,76.0,29.88,SSW,206,0.0,-999.0,66,-99.99,,,0.35,weatherlink.com 1.10,2013-09-13 15:30:00,
2013-09-13 11:45:00,89.1,76.0,29.88,East,101,1.0,-999.0,65,-99.99,,,0.35,weatherlink.com 1.10,2013-09-13 15:45:00,
2013-09-13 12:01:00,90.6,77.0,29.88,WSW,256,0.0,-999.0,65,-99.99,,,0.35,weatherlink.com 1.10,2013-09-13 16:01:00,
2013-09-13 12:16:00,90.7,75.0,29.88,WNW,298,0.0,-999.0,61,-99.99,,,0.35,weatherlink.com 1.10,2013-09-13 16:16:00,
2013-09-13 12:31:00,92.1,76.0,29.87,SW,236,0.0,-999.0,59,-99.99,,,0.35,weatherlink.com 1.10,2013-09-13 16:31:00,
2013-09-13 12:46:00,93.4,75.0,29.86,SSW,194,2.0,-999.0,56,-99.99,,,0.35,weatherlink.com 1.10,2013-09-13 16:46:00,
2013-09-13 13:01:00,94.2,76.0,29.86,SSW,201,0.0,-999.0,56,-99.99,,,0.35,weatherlink.com 1.10,2013-09-13 17:01:00,
2013-09-13 13:16:00,93.9,75.0,29.85,SW,219,0.0,-999.0,55,-99.99,,,0.35,weatherlink.com 1.10,2013-09-13 17:16:00,
2013-09-13 13:31:00,93.8,75.0,29.85,NW,319,2.0,-999.0,54,-99.99,,,0.35,weatherlink.com 1.10,2013-09-13 17:31:00,
2013-09-13 13:46:00,92.9,75.0,29.84,SSW,205,0.0,-999.0,56,-99.99,,,0.35,weatherlink.com 1.10,2013-09-13 17:46:00,
2013-09-13 14:01:00,93.2,75.0,29.84,NE,35,1.0,-999.0,55,-99.99,,,0.35,weatherlink.com 1.10,2013-09-13 18:01:00,
2013-09-13 14:16:00,91.6,78.0,29.83,ESE,123,1.0,-999.0,64,-99.99,,,0.35,weatherlink.com 1.10,2013-09-13 18:16:00,
2013-09-13 14:31:00,89.8,77.0,29.83,ESE,115,6.0,-999.0,66,-99.99,,,0.35,weatherlink.com 1.10,2013-09-13 18:31:00,
2013-09-13 14:46:00,89.4,78.0,29.83,SSE,168,1.0,-999.0,68,-99.99,,,0.35,weatherlink.com 1.10,2013-09-13 18:46:00,
2013-09-13 15:01:00,89.5,78.0,29.82,SSE,150,2.0,-999.0,68,-99.99,,,0.35,weatherlink.com 1.10,2013-09-13 19:01:00,
2013-09-13 15:16:00,89.4,78.0,29.82,ENE,67,3.0,-999.0,68,-99.99,,,0.35,weatherlink.com 1.10,2013-09-13 19:16:00,
2013-09-13 15:31:00,89.9,78.0,29.81,SSE,165,2.0,-999.0,67,-99.99,,,0.35,weatherlink.com 1.10,2013-09-13 19:31:00,
2013-09-13 15:46:00,89.8,78.0,29.81,South,171,7.0,-999.0,68,-99.99,,,0.35,weatherlink.com 1.10,2013-09-13 19:46:00,
2013-09-13 16:01:00,89.4,78.0,29.80,ESE,121,4.0,-999.0,68,-99.99,,,0.35,weatherlink.com 1.10,2013-09-13 20:01:00,
2013-09-13 16:16:00,88.8,77.0,29.80,SE,129,5.0,-999.0,69,-99.99,,,0.35,weatherlink.com 1.10,2013-09-13 20:16:00,
2013-09-13 16:31:00,88.6,77.0,29.80,SE,138,2.0,-999.0,69,-99.99,,,0.35,weatherlink.com 1.10,2013-09-13 20:31:00,
2013-09-13 16:46:00,89.5,77.0,29.80,ENE,71,1.0,-999.0,67,-99.99,,,0.35,weatherlink.com 1.10,2013-09-13 20:46:00,
2013-09-13 17:01:00,88.9,77.0,29.80,East,96,1.0,-999.0,68,-99.99,,,0.35,weatherlink.com 1.10,2013-09-13 21:01:00,
2013-09-13 17:16:00,88.8,77.0,29.80,SE,138,1.0,-999.0,69,-99.99,,,0.35,weatherlink.com 1.10,2013-09-13 21:16:00,
2013-09-13 17:31:00,88.6,78.0,29.80,ENE,74,2.0,-999.0,70,-99.99,,,0.35,weatherlink.com 1.10,2013-09-13 21:31:00,
2013-09-13 17:46:00,88.2,77.0,29.80,SSE,155,2.0,-999.0,69,-99.99,,,0.35,weatherlink.com 1.10,2013-09-13 21:46:00,
2013-09-13 18:01:00,87.5,76.0,29.80,East,93,6.0,-999.0,69,-99.99,,,0.35,weatherlink.com 1.10,2013-09-13 22:01:00,
2013-09-13 18:16:00,86.7,75.0,29.80,South,179,4.0,-999.0,69,-99.99,,,0.35,weatherlink.com 1.10,2013-09-13 22:16:00,
2013-09-13 18:31:00,85.8,75.0,29.81,SSE,159,2.0,-999.0,69,-99.99,,,0.35,weatherlink.com 1.10,2013-09-13 22:31:00,
2013-09-13 18:46:00,85.1,74.0,29.81,SSE,151,0.0,-999.0,69,-99.99,,,0.35,weatherlink.com 1.10,2013-09-13 22:46:00,
2013-09-13 19:01:00,84.5,73.0,29.81,SSE,149,1.0,-999.0,69,-99.99,,,0.35,weatherlink.com 1.10,2013-09-13 23:01:00,
2013-09-13 19:16:00,84.2,73.0,29.81,SSE,160,0.0,-999.0,70,-99.99,,,0.35,weatherlink.com 1.10,2013-09-13 23:16:00,
2013-09-13 19:31:00,84.0,74.0,29.82,SE,133,1.0,-999.0,71,-99.99,,,0.35,weatherlink.com 1.10,2013-09-13 23:31:00,
2013-09-13 19:46:00,83.8,74.0,29.82,SSE,154,0.0,-999.0,72,-99.99,,,0.35,weatherlink.com 1.10,2013-09-13 23:46:00,
2013-09-13 20:01:00,83.6,74.0,29.82,ESE,119,1.0,-999.0,73,-99.99,,,0.35,weatherlink.com 1.10,2013-09-14 00:01:00,
2013-09-13 20:16:00,83.4,74.0,29.82,SE,145,0.0,-999.0,73,-99.99,,,0.35,weatherlink.com 1.10,2013-09-14 00:16:00,
2013-09-13 20:31:00,83.1,74.0,29.83,SE,143,0.0,-999.0,74,-99.99,,,0.35,weatherlink.com 1.10,2013-09-14 00:31:00,
2013-09-13 20:46:00,82.6,74.0,29.82,SSE,151,0.0,-999.0,75,-99.99,,,0.35,weatherlink.com 1.10,2013-09-14 00:46:00,
2013-09-13 21:01:00,82.4,74.0,29.82,SSE,150,2.0,-999.0,75,-99.99,,,0.35,weatherlink.com 1.10,2013-09-14 01:01:00,
2013-09-13 21:16:00,82.3,74.0,29.84,South,191,0.0,-999.0,76,-99.99,,,0.35,weatherlink.com 1.10,2013-09-14 01:16:00,
2013-09-13 21:31:00,82.3,75.0,29.84,SSE,148,0.0,-999.0,78,-99.99,,,0.35,weatherlink.com 1.10,2013-09-14 01:31:00,
2013-09-13 21:46:00,81.9,75.0,29.84,SE,142,0.0,-999.0,80,-99.99,,,0.35,weatherlink.com 1.10,2013-09-14 01:46:00,
2013-09-13 22:01:00,81.7,75.0,29.85,SSE,161,0.0,-999.0,81,-99.99,,,0.35,weatherlink.com 1.10,2013-09-14 02:01:00,
2013-09-13 22:16:00,81.5,76.0,29.85,SSE,156,0.0,-999.0,82,-99.99,,,0.35,weatherlink.com 1.10,2013-09-14 02:16:00,
2013-09-13 22:31:00,81.4,76.0,29.85,ESE,103,0.0,-999.0,83,-99.99,,,0.35,weatherlink.com 1.10,2013-09-14 02:31:00,
2013-09-13 22:46:00,81.1,76.0,29.86,SSE,148,0.0,-999.0,84,-99.99,,,0.35,weatherlink.com 1.10,2013-09-14 02:46:00,
2013-09-13 23:01:00,81.1,76.0,29.85,SSE,150,0.0,-999.0,84,-99.99,,,0.35,weatherlink.com 1.10,2013-09-14 03:01:00,
2013-09-13 23:16:00,81.1,76.0,29.85,SSE,152,0.0,-999.0,84,-99.99,,,0.35,weatherlink.com 1.10,2013-09-14 03:16:00,
2013-09-13 23:31:00,80.9,76.0,29.85,SSE,167,0.0,-999.0,85,-99.99,,,0.35,weatherlink.com 1.10,2013-09-14 03:31:00,
2013-09-13 23:46:00,80.8,76.0,29.85,SSE,156,0.0,-999.0,85,-99.99,,,0.35,weatherlink.com 1.10,2013-09-14 03:46:00,